Regional Weather Roundup
Issued by NWS

Home | Current Version | Previous Version | Text Only | Print | Product List | Glossary On
Versions: 1 2 3 4 5 6 7 8 9 10 11 12 13 14 15 16 17 18 19 20 21 22 23 24 25 26 27 28
000
ASPQ40 PGUM 261312
RWRPQ
WEATHER ROUNDUP FOR THE MARIANAS AND MICRONESIA
NATIONAL WEATHER SERVICE TIYAN GU
1100 PM CHST SUN MAR 26 2017

GUZ001>004-261400-
MARIANA ISLANDS-

CITY           SKY/WX    TMP DP  RH WIND       PRES   REMARKS
GUAM AIRPORT   PTCLDY    81  73  78 E8        30.00S
ANDERSEN AFB   NOT AVBL
ROTA AIRPORT   NOT AVBL
TINIAN AP      NOT AVBL
SAIPAN AP      PTCLDY    79  73  83 E9        30.01S

$$

PMZ161-261400-
REPUBLIC OF PALAU-

CITY           SKY/WX    TMP DP  RH WIND       PRES   REMARKS
KOROR AP       MOCLDY    81  77  89 E7        29.91R
KOROR WSO      MOCLDY    82  75  78 E5        29.92R

$$

PMZ171>174-261400-
FEDERATED STATES OF MICRONESIA-

CITY           SKY/WX    TMP DP  RH WIND       PRES   REMARKS
YAP AIRPORT    MOCLDY    82  77  83 VRB7      29.93R HX  91
CHUUK AP       MOCLDY    84  77  79 NE10      29.90S HX  94
POHNPEI AP     MOCLDY    82  77  83 E18       29.88S HX  91
POHNPEI WSO    CLOUDY    82  75  78 NE14      29.92F
KOSRAE AP      NOT AVBL

$$

PMZ181-261400-
REPUBLIC OF THE MARSHALL ISLANDS-

CITY           SKY/WX    TMP DP  RH WIND       PRES   REMARKS
KWAJALEIN AP   CLOUDY    82  73  74 NE20      29.91F
MAJURO AP      NOT AVBL
MAJURO WSO     MOCLDY    81  77  89 NE13      29.85F

$$





USA.gov is the U.S. government's official web portal to all federal, state and local government web resources and services.